Probability
19 19 22 25 21 15 13 12 11 11 10 14 17 20 27 25 10 3 3 1 0 0 0 0 0 0 0 0 0 0 0 0 0 0 0 0 0 0
12 13 18 24 22 18 15 14 12 11 11 11 12 15 19 17 10 10 10 6 2 0 0 0 0 0 0 0 0 0 0 0 0 0 0 0 0 0
5 7 12 18 21 20 17 14 11 10 9 8 7 7 11 13 15 18 18 14 7 2 0 0 0 0 0 0 0 0 0 0 0 0 0 0 0 0
2 4 8 12 17 18 15 11 8 6 6 6 4 3 6 13 18 20 16 14 11 4 0 0 0 0 0 0 0 0 0 0 0 0 0 0 0 0
2 4 6 8 11 14 11 7 6 4 6 7 5 3 5 9 14 13 10 9 8 3 0 0 0 0 0 0 0 0 0 0 0 0 0 0 0 0
2 3 5 6 7 9 9 9 9 8 9 10 8 5 4 5 7 7 7 7 5 3 1 1 0 0 0 0 0 0 0 0 0 0 0 0 0 0
1 1 2 4 5 5 7 9 11 13 13 12 10 7 3 1 3 3 5 7 6 5 4 2 0 0 0 0 0 0 0 0 0 0 0 0 0 0
0 0 0 1 2 2 3 6 9 11 12 12 10 7 3 1 1 1 3 5 5 5 6 4 1 1 0 0 0 0 0 0 0 0 0 0 0 0
0 0 0 0 1 2 2 4 6 8 9 10 8 5 3 2 1 1 1 2 2 4 5 4 3 2 1 0 0 0 0 0 0 0 0 0 0 0
0 0 0 0 1 2 4 6 8 7 6 6 5 4 4 4 2 1 1 0 1 3 4 3 3 2 1 0 0 0 0 0 0 0 0 0 0 0
0 0 0 0 0 1 3 7 9 8 5 3 3 3 3 3 2 1 0 0 0 1 2 3 2 1 1 0 0 0 0 0 0 0 0 0 0 0
0 0 0 0 0 0 2 5 8 8 6 3 3 2 2 2 1 0 0 0 0 0 1 2 1 0 0 0 0 0 0 0 0 0 0 0 0 0
0 0 0 0 0 0 1 3 4 6 7 5 3 3 3 2 0 0 0 0 0 0 0 0 0 0 0 0 0 0 0 0 0 0 0 0 0 0
0 0 0 0 0 0 0 1 1 3 5 4 2 2 2 1 0 0 0 0 0 0 0 0 0 0 0 0 0 0 0 0 0 0 0 0 0 0
0 0 0 0 0 0 0 0 0 2 3 2 1 1 1 0 0 0 0 0 0 0 0 0 0 0 0 0 0 0 0 0 0 0 0 0 0 0
0 0 0 0 0 0 0 0 0 1 1 0 0 0 0 0 0 0 0 0 0 0 0 0 0 0 0 0 0 0 0 0 0 0 0 0 0 0
0 0 0 0 0 0 0 0 0 0 0 0 0 0 0 0 0 0 0 0 0 0 0 0 0 0 0 0 0 0 0 0 0 0 0 0 0 0
0 0 0 0 0 0 0 0 0 0 0 0 0 0 0 0 0 0 0 0 0 0 0 0 0 0 0 0 0 0 0 0 0 0 0 0 0 0
0 0 0 0 0 0 0 0 0 0 0 0 0 0 0 0 0 0 0 0 0 0 0 0 0 0 0 0 0 0 0 0 0 0 0 0 0 0
0 0 0 0 0 0 0 0 0 0 0 0 0 0 0 0 0 0 0 0 0 0 0 0 0 0 0 0 0 0 0 0 0 0 0 0 0 0
0 0 0 0 0 0 0 0 0 0 0 0 0 0 0 0 0 0 0 0 0 0 0 0 0 0 0 0 0 0 0 0 0 0 0 0 0 0
0 0 0 0 0 0 0 0 0 0 0 0 0 0 0 0 0 0 0 0 0 0 0 0 0 0 0 0 0 0 0 0 0 0 0 0 0 0
0 0 0 0 0 0 0 0 0 0 0 0 0 0 0 0 0 0 0 0 0 0 0 0 0 0 0 0 0 0 0 0 0 0 0 0 0 0
Wind_Speed
8 9 8 7 7 7 7 6 6 6 7 8 5 8 7 7 9 10 11 15 15 14 13 12 11 10 10 9 8 7 8 7 7 7 5 5 4 4
6 8 8 7 7 7 8 7 7 6 5 4 5 5 7 7 9 10 9 14 15 14 13 13 12 11 11 10 9 9 8 8 8 7 6 5 5 4
6 8 8 8 7 7 7 8 7 7 7 4 2 4 7 8 7 7 8 9 9 14 13 13 12 12 12 11 11 10 9 8 8 7 7 7 6 5
7 7 8 7 9 8 7 9 8 7 7 7 4 5 6 7 8 8 7 6 7 12 13 12 12 12 12 12 11 10 10 9 8 8 7 7 7 6
6 7 7 7 8 7 9 8 7 7 6 6 6 4 3 5 7 6 7 6 6 9 12 11 12 12 12 12 11 11 10 10 9 8 7 7 7 6
6 6 7 7 8 9 8 9 8 7 7 6 6 5 5 6 6 7 6 5 5 6 7 8 11 12 12 12 12 11 10 10 9 8 8 7 7 6
6 6 6 7 8 7 7 8 9 7 7 7 6 6 6 7 7 6 7 6 5 4 6 6 7 7 8 10 11 12 11 10 10 9 9 8 7 6
5 5 5 7 8 10 10 10 10 10 9 8 6 7 8 8 7 7 7 7 5 5 6 5 5 6 5 5 9 11 12 11 10 10 9 8 7 7
5 5 4 4 6 7 9 11 12 12 11 9 9 9 9 9 10 10 9 8 5 6 6 5 4 5 5 6 11 12 12 12 11 10 9 9 8 8
5 5 5 5 5 6 7 8 9 10 10 10 9 9 8 9 10 9 9 7 7 5 5 4 4 4 5 6 10 11 11 11 11 10 10 9 8 8
4 4 5 5 3 5 7 8 8 7 6 7 7 7 9 11 10 8 9 9 7 4 3 4 5 4 4 4 7 10 9 9 9 10 10 9 8 8
3 3 3 4 4 5 7 7 7 6 6 7 7 9 11 13 14 11 10 10 7 5 6 6 7 6 4 3 5 7 7 8 8 8 9 9 8 6
4 4 2 2 3 4 6 5 5 5 5 6 6 7 7 7 8 8 7 8 8 6 8 7 7 6 5 6 4 5 6 7 7 7 8 9 7 5
4 4 2 2 2 2 2 3 6 5 4 5 5 5 6 6 6 6 7 5 4 6 11 9 7 7 7 7 6 6 5 5 6 7 7 9 7 4
3 4 4 3 1 1 4 5 5 4 4 4 5 4 4 5 6 6 7 7 7 6 8 7 7 7 6 6 7 7 7 6 6 6 7 7 7 7
2 1 2 3 3 4 4 3 2 2 3 4 5 4 4 5 6 7 7 7 6 5 4 5 6 8 5 5 6 7 7 7 7 7 6 6 6 6
4 2 1 1 1 2 2 3 3 3 4 4 5 5 5 6 6 6 6 6 6 6 6 4 4 4 3 5 6 6 6 6 7 8 7 7 7 7
4 2 1 0 1 1 2 2 2 3 4 4 5 5 6 6 6 5 5 6 6 7 7 6 6 5 4 2 1 6 6 6 6 7 7 7 7 7
4 2 2 2 2 2 2 2 3 3 3 4 5 5 6 6 6 6 6 6 6 6 6 7 7 6 6 6 5 4 6 6 6 7 7 7 6 5
4 4 3 3 3 3 3 3 4 4 4 5 6 6 6 6 7 7 6 7 7 7 6 6 6 6 5 4 4 6 6 7 7 7 7 6 5 2
5 4 4 4 4 4 4 4 5 5 5 5 6 6 6 7 6 6 6 7 7 7 7 6 4 2 2 2 3 5 7 5 3 4 6 6 6 6
6 6 5 5 5 5 5 5 5 5 6 6 6 6 6 6 7 8 7 8 7 6 7 6 7 5 5 6 5 6 7 7 5 3 5 6 5 5
8 7 7 7 7 6 6 7 8 7 7 7 7 7 7 7 7 7 8 7 7 7 7 7 7 6 6 6 5 5 7 7 6 7 8 11 11 9
Wind_Direction
238 232 227 222 219 215 211 209 210 216 219 215 201 209 209 207 168 192 199 181 185 186 184 183 180 178 175 173 173 170 165 162 161 163 170 173 174 174
241 235 228 222 218 215 212 210 214 219 229 214 203 201 201 202 188 205 201 164 180 181 180 177 177 174 170 165 160 154 154 153 153 157 160 160 157 147
243 237 231 223 217 214 211 209 212 214 223 216 196 199 197 199 181 193 184 178 176 175 175 173 172 168 165 160 157 154 154 154 156 157 158 152 144 140
251 243 235 224 218 215 211 211 210 209 214 210 194 197 203 192 180 178 172 171 168 163 166 165 163 161 159 158 155 154 152 151 151 151 152 152 148 143
258 247 240 231 223 216 212 210 208 207 209 207 196 184 184 177 167 161 160 154 154 150 153 156 158 156 156 154 151 149 147 146 145 145 146 142 141 139
264 252 246 238 233 223 216 211 205 203 203 201 193 181 173 171 166 160 154 150 149 148 143 145 146 147 150 149 149 148 147 145 144 141 138 136 134 132
267 255 250 248 251 242 228 213 207 203 199 198 194 185 178 173 175 168 159 146 140 146 138 142 146 148 149 150 150 151 150 148 146 142 138 137 135 134
275 265 250 235 235 236 238 232 220 210 204 199 198 193 187 178 166 164 159 157 156 162 147 142 149 146 151 147 146 152 152 149 146 144 142 141 139 137
284 276 264 250 238 235 222 220 220 217 215 210 203 197 186 180 171 171 172 166 150 151 142 136 143 140 135 134 146 153 153 151 149 151 150 146 141 138
287 281 271 265 255 251 232 222 219 212 210 213 212 202 189 179 178 174 163 141 121 137 144 133 143 136 131 133 143 148 150 153 154 154 150 145 143 144
287 289 287 272 267 258 243 227 218 209 202 207 204 190 173 170 165 156 154 152 147 151 161 138 141 131 133 140 142 144 145 150 154 155 153 150 152 165
297 288 289 289 282 256 242 224 211 194 181 174 173 170 169 166 167 173 168 164 152 152 171 153 148 148 145 151 154 160 156 149 150 155 158 159 169 200
308 300 297 293 290 267 250 226 191 176 174 167 164 159 160 165 171 175 175 171 166 156 163 156 157 166 152 149 165 174 170 165 167 165 166 171 187 234
310 310 328 354 315 284 223 143 142 154 156 155 156 155 156 159 159 162 159 154 152 147 159 162 157 169 159 155 158 169 178 181 180 177 173 167 187 206
336 4 7 11 11 110 119 127 150 154 144 146 147 141 138 140 136 131 122 111 101 116 152 165 158 168 175 170 159 163 173 184 189 188 182 184 190 188
320 30 65 58 60 74 99 110 110 119 131 131 126 122 124 135 140 139 138 134 121 116 133 158 166 169 176 165 163 167 173 174 181 192 193 197 204 203
325 305 322 77 94 89 82 86 98 115 120 131 134 135 135 137 140 145 148 150 146 144 142 138 136 141 160 170 174 176 178 178 177 184 193 204 209 211
296 275 258 140 116 122 119 118 122 128 138 141 142 144 145 143 141 145 159 162 155 152 151 151 148 146 148 136 255 190 186 186 179 182 199 211 217 211
266 259 232 205 186 176 163 156 147 145 147 150 153 155 155 153 153 158 164 162 156 155 157 164 175 181 186 188 178 232 205 184 182 188 203 215 228 220
241 243 231 212 205 198 184 174 164 160 165 165 164 164 163 162 163 167 169 167 162 160 162 174 188 199 209 205 166 171 215 201 193 201 202 211 224 221
232 228 226 218 210 207 197 186 182 179 175 173 168 168 170 170 171 173 167 161 172 172 175 179 166 159 157 153 177 175 175 205 262 229 215 209 217 222
235 228 222 220 212 207 200 196 193 187 185 185 175 176 177 179 177 178 175 175 184 185 181 156 150 174 194 207 210 189 174 175 185 237 273 264 241 239
230 227 221 216 213 208 206 204 203 198 193 194 187 185 186 185 185 185 185 187 187 184 174 165 169 186 200 208 217 211 196 192 193 201 217 215 226 245